[ hide orbit diagram ]
For accurate long-term ephemerides, please instead use our Horizons system.This orbit viewer was implemented using two-body methods, and hence should not be used for determining accurate long-term trajectories (over several years or decades) or planetary encounter circumstances.
Orbital Elements at Epoch 2459200.5 (2020-Dec-17.0) TDB
Reference: JPL 106 (heliocentric ecliptic J2000)
Element | Value | Uncertainty (1-sigma) | Units |
e | .1105902668537782 | 1.2327e-08 | |
a | 3.095046878247148 | 3.8828e-09 | au |
q | 2.752764818056843 | 3.8494e-08 | au |
i | 7.478544663682574 | 3.6786e-07 | deg |
node | 128.5992373440395 | 2.934e-06 | deg |
peri | 343.2672458597868 | 1.2341e-05 | deg |
M | 346.1683475969324 | 9.7217e-06 | deg |
tp | 2459276.913631455128 (2021-Mar-03.41363146) | 5.3677e-05 | TDB |
period | 1988.837379816247 5.45 | 3.7425e-06 1.025e-08 | d yr |
n | .1810102744716419 | 3.4062e-10 | deg/d |
Q | 3.437328938437453 | 4.3122e-09 | au |
|
| | Orbit Determination Parameters
Additional Information
|
[ show covariance matrix ]
Physical Parameter Table
Parameter |
Symbol |
Value |
Units |
Sigma |
Reference |
Notes |
absolute magnitude |
H |
6.49 |
|
n/a |
E2021B10 |
IRAS observations used: 19 |
magnitude slope |
G |
0.18 |
|
n/a |
PDS3 (MPC 17257) |
Fit |
diameter |
diameter |
303.918 |
km |
3.501 |
urn:nasa:pds:neowise_diameters_albedos::2.0[mainbelt] (http://adsabs.harvard.edu/abs/2012ApJ...759L...8M) |
|
rotation period |
rot_per |
5.6304 |
h |
n/a |
LCDB (Rev. 2020-October); Warner et al., 2009 |
Published Reference List: [Zappala, V.; Di Martino, M.; Cacciatori, S. (1983) Icarus 56, 319-324.] [Michalowski, T.; Velichko, F.P.; Di Martino, M.; Krugly, et al. (1995) Icarus 118, 292-301.] [Lopez-Gonzalez, M.J.; Rodriguez, E. (1999) Astron. Astrophys. Suppl. Ser. 139, 565-574.] [Kaasalainen, M.; Torppa, J.; Piironen, J. (2002) Icarus 159, 369-395.] [Michalowski, T.; Kwiatkowski, T.; Pych, W.; Kryszczynska, A.; et al. (2004) Astron. Astrophys. 416, 353-366.] [Behrend, R. (2011) Observatoire de Geneve web site, http://obswww.unige.ch/~behrend/page_cou.html] [Durech, J.; Kaasalainen, M.; Herald, D.; Dunham, D.; et al. (2011) Icarus 214, 652-670.] [Hanus, J.; Marchis, F.; Durech, J. (2013) Icarus 226, 1045-1057.] [Hanus, J.; Viikinkoski, M.; Marchis, F.; Durech, J.; et al (2017) Astron. Astrophys. 601, A114.] |
geometric albedo |
albedo |
0.057 |
|
0.007 |
urn:nasa:pds:neowise_diameters_albedos::2.0[mainbelt] (http://adsabs.harvard.edu/abs/2012ApJ...759L...8M) |
|
B-V |
BV |
0.679 |
|
0.017 |
EAR-A-5-DDR-UBV-MEAN-VALUES-V1.2 |
#obs=6; phase (min.=3.33, mean=11.85, max.=20.86) deg. |
U-B |
UB |
0.338 |
|
0.028 |
EAR-A-5-DDR-UBV-MEAN-VALUES-V1.2 |
#obs=5; phase (min.=3.33, mean=12.40, max.=20.86) deg. |
Tholen spectral type |
spec_T |
CF |
|
n/a |
EAR-A-5-DDR-TAXONOMY-V4.0 |
used 7 color indices; used ground-based radiometric albedo |
SMASSII spectral type |
spec_B |
C |
|
n/a |
EAR-A-5-DDR-TAXONOMY-V4.0 |
based on a high-resolution spectrum by Xu et al. (1995) or Bus and Binzel (2002) |
|
52 Europa (A858 CA) Discovered 1858-Feb-04 by Goldschmidt, H. at Paris |
Reference: DISCOVERY.DB | Last Updated: 2003-08-29 |
|
[ show close-approach data ]
|